Location: Newark
(35.4036°N, 80.4356°W)
Time: 22:23:09
(UTC+00:00)

Envisat - Pass Details

Date: 01 September 2019
Orbit: 764 x 766 km, 98.1° (Epoch: 18 September)

Event Time Altitude Azimuth Distance (km) Brightness Sun altitude
Rises 01:04:05 0° 217° (SW) 3,218 6.4 -15.2°
Reaches altitude 10° 01:08:08 10° 249° (WSW) 2,299 6.1 -16.0°
Maximum altitude 01:09:49 12° 269° (W) 2,192 6.4 -16.3°
Drops below altitude 10° 01:11:31 10° 289° (WNW) 2,303 6.8 -16.6°
Sets 01:15:37 0° 322° (NW) 3,235 7.4 -17.4°
